User: anonymous   Login
Location: Voyageurs National Park
(48.5020°N, 92.9292°W)
Time: 12:58:19
(UTC-05:00)
Language:

Terra - Orbit

View from above orbital plane
View from above orbital plane
View from above satellite
View from above satellite

Ground track
Ground track

The orbit data is extracted from the following two-line orbital elements,

1 25994U 99068A   16242.08498913  .00000202  00000-0  54942-4 0  9990
2 25994  98.2040 315.3430 0000604  91.2446 268.8815 14.57127584888139
Epoch (UTC): 29 August 2016 02:02:23
Eccentricity: 0.0000604
inclination: 98.2040°
perigee height: 702 km
apogee height: 703 km
right ascension of ascending node: 315.3430°
argument of perigee: 91.2446°
revolutions per day: 14.57127584
mean anomaly at epoch: 268.8815°
orbit number at epoch: 88813

The dashed part of the orbit path shows where the satellite is in the earth's shadow,  

DLR